Погода в Красном Восходе

Россия / Воронежская область     50°36′07″N   39°37′05″E
темп.,
°C
ветер,
м/с
пор.,
м/с
влажн.,
%
обл.,
%
осадки,
мм/ч
давл.,
гПа
погр.,
м
19 апреля, пн
пн1900:00+8в227897 0.1 101717
03:00+7вюв227572 0.1 101713
06:00+6ссв228567 0.1 101734
09:00+11св3360100 0.2 1016492
12:00+14в3345100 0.0 10141696
15:00+15вюв4348100 0.1 10141445
18:00+13вюв355987 0.6 1014737
21:00+11юв127075 0.7 101426
20 апреля, вт
вт2000:00+9всв2281100 0.1 101423
03:00+8в3692100 0.2 1014146
06:00+8в4986100 0.0 1012411
09:00+10в71082100 0.1 1010656
12:00+11в6983100 0.4 1008828
15:00+10св81496100 9.4 1003825
18:00+12юв81587100 12.9 9961002
21:00+8ююз91792100 13.1 999633
21 апреля, ср
ср2100:00+6зюз51189100 0.1 1002668
03:00+7зюз61387100 0.2 1005825
06:00+8юз5993100 0.0 1008572
09:00+8зюз3692100 0.7 1010384
12:00+12юз7106798 1.4 10111433
15:00+12зюз586681 2.3 10131062
18:00+12зюз586439 0.5 1014712
21:00+9зюз36827 0.8 1017136
22 апреля, чт
чт2200:00+7юз228631 0.0 101819
03:00+6ююз228310 0.0 101918
06:00+7ю227947 0.0 102021
09:00+12ю456249 0.0 1020445
12:00+15ююз465292 0.5 10201813
15:00+16ююз4549100 1.4 10201695
18:00+14ю246373 1.3 1020128
21:00+9ююз3884100 2.3 1021154
23 апреля, пт
пт2300:00+9ю227746 0.0 102124
03:00+8ююз22865 0.0 102119
06:00+7ю22875 0.0 102126
09:00+13ю33685 0.0 1021469
12:00+16ююз44525 0.3 10191442
15:00+17юз4544100 1.4 10182439
18:00+14юз366319 0.1 1018285
21:00+11ююз22715 0.1 101824